[[{"header":{"parameterUnit":"m.s-1","parameterCategory":2,"la1":30.2992,"la2":30.254,"lo1":-89.0895,"lo2":-89.0443,"dy":0.0025,"dx":0.0025,"nx":19,"ny":19,"refTime":"2026-04-22T09:00:00:Z","depth":"0","parameterNumber":2,"parameterNumberName":"U-component_of_CURRENTS"},"data":[0,0,0,-0.3588,-0.3592,-0.3748,-0.3748,-0.3792,-0.3792,0,0,0,0,0,0,0,0,0,0,0,-0.353,-0.3531,-0.3588,-0.3592,-0.3748,-0.3748,-0.3792,-0.3792,0,0,0,0,0,0,0,0,0,0,0,-0.3529,-0.3531,-0.3533,-0.3593,-0.3748,-0.3748,-0.3792,-0.371,0,0,0,0,0,0,0,0,0,0,-0.3576,-0.3523,-0.3531,-0.3533,-0.3594,-0.3748,-0.3749,-0.3707,-0.3715,-0.3682,0,-0.3724,0,-0.3765,-0.3793,-0.3793,0,0,0,-0.3577,-0.3517,-0.3591,-0.3533,-0.3596,-0.3748,-0.3673,-0.3712,-0.3721,-0.3691,-0.3725,-0.3728,-0.3766,-0.3793,-0.3793,-0.3683,-0.3682,0,0,-0.3568,-0.3521,-0.3586,-0.3597,-0.3656,-0.3668,-0.3678,-0.3719,-0.3713,-0.3725,-0.373,-0.3767,-0.3793,-0.3794,-0.3684,-0.3683,0,0,0,-0.3554,-0.3515,-0.3589,-0.3593,-0.3638,-0.3673,-0.3685,-0.3711,-0.3746,-0.3731,-0.3767,-0.3794,-0.3794,-0.3686,-0.3684,-0.3639,0,0,0,-0.3548,-0.3509,-0.3586,-0.3554,-0.3639,-0.3692,-0.3675,-0.3743,-0.375,-0.3767,-0.3794,-0.3794,-0.3687,-0.3685,-0.3643,-0.3618,0,0,0,-0.3519,-0.3504,-0.3537,-0.3552,-0.3632,-0.3693,-0.3729,-0.3746,-0.3771,-0.3793,-0.3794,-0.3688,-0.3685,-0.3647,-0.3624,-0.3616,0,0,0,-0.3446,-0.3514,-0.3536,-0.3616,-0.3631,-0.373,-0.373,-0.3788,-0.3811,-0.3794,-0.3687,-0.3684,-0.3648,-0.3628,-0.3619,-0.3447,-0.3419,0,0,-0.3499,-0.3518,-0.3571,-0.3596,-0.3664,-0.3706,-0.37,-0.373,-0.3734,-0.3664,-0.3663,-0.3642,-0.3624,-0.3616,-0.3268,-0.3245,0,0,0,-0.3567,-0.3575,-0.3617,-0.3648,-0.373,-0.3687,-0.3724,-0.3701,-0.3637,-0.3738,-0.3591,-0.358,-0.3578,-0.3479,-0.3459,-0.3399,-0.3669,-0.367,-0.367,-0.3434,-0.3514,-0.3535,-0.3597,-0.3641,-0.3653,-0.3626,-0.3566,-0.3602,-0.3533,-0.3506,-0.3415,-0.3303,-0.3288,-0.3227,-0.3466,-0.3466,-0.3466,-0.3465,-0.3356,-0.3324,-0.3395,-0.3444,-0.3441,-0.3421,-0.3429,-0.3435,-0.3374,-0.3392,-0.3394,-0.3387,-0.3265,-0.3206,-0.3462,-0.3462,-0.3463,-0.3463,-0.3463,-0.3147,-0.3149,-0.32,-0.3215,-0.3197,-0.3251,-0.3226,-0.328,-0.3302,-0.3302,-0.3227,-0.3226,-0.3213,-0.332,-0.332,-0.332,-0.332,-0.332,-0.332,-0.2882,-0.2951,-0.2921,-0.2989,-0.2986,-0.3018,-0.3118,-0.3133,-0.3143,-0.3143,-0.3142,-0.3128,-0.3371,-0.3421,-0.3317,-0.3317,-0.3317,-0.3318,-0.3318,-0.2633,-0.2687,-0.2644,-0.2647,-0.2692,-0.2666,-0.2847,-0.287,-0.293,-0.2888,-0.2863,-0.3061,-0.3067,-0.308,-0.312,-0.2946,-0.2946,-0.2945,-0.2945,-0.2428,-0.2465,-0.2377,-0.2358,-0.2374,-0.2484,-0.2394,-0.2481,-0.2579,-0.2566,-0.2679,-0.2651,-0.2669,-0.2655,-0.2677,-0.271,-0.2435,-0.2435,-0.2434,-0.2242,-0.2261,-0.2128,-0.2174,-0.2212,-0.2252,-0.2107,-0.2107,-0.2274,-0.2417,-0.2629,-0.2651,-0.2623,-0.2657,-0.2648,-0.2684,-0.2745,0,0]},{"header":{"parameterUnit":"m.s-1","parameterCategory":2,"la1":30.2992,"la2":30.254,"lo1":-89.0895,"lo2":-89.0443,"dy":0.0025,"dx":0.0025,"nx":19,"ny":19,"refTime":"2026-04-22T09:00:00:Z","depth":"0","parameterNumber":3,"parameterNumberName":"V-component_of_CURRENTS"},"data":[0,0,0,-0.0453,-0.0451,-0.0284,-0.0283,-0.0006,-0.0004,0,0,0,0,0,0,0,0,0,0,0,-0.0515,-0.0514,-0.0454,-0.0451,-0.0284,-0.0283,-0.0007,-0.0004,0,0,0,0,0,0,0,0,0,0,0,-0.0515,-0.0514,-0.0514,-0.045,-0.0284,-0.0283,-0.0007,-0.0141,0,0,0,0,0,0,0,0,0,0,-0.0308,-0.0387,-0.0514,-0.0514,-0.045,-0.0285,-0.0283,-0.0148,-0.0133,-0.0074,0,-0.0073,0,-0.0042,0.0013,0.0014,0,0,0,-0.0418,-0.04,-0.0358,-0.0514,-0.0448,-0.0285,-0.035,-0.014,-0.0122,-0.0054,-0.0069,-0.0058,-0.0038,0.0015,0.0016,0.0138,0.0138,0,0,-0.0427,-0.0469,-0.0371,-0.0349,-0.0434,-0.0356,-0.0345,-0.013,-0.0121,-0.0068,-0.0052,-0.0033,0.0016,0.0018,0.0139,0.0138,0,0,0,-0.0476,-0.0476,-0.044,-0.036,-0.0341,-0.0352,-0.034,-0.013,-0.012,-0.0049,-0.003,0.0018,0.0021,0.0139,0.0138,0.0008,0,0,0,-0.048,-0.0506,-0.0445,-0.0465,-0.0346,-0.0243,-0.0345,-0.0135,-0.011,-0.0032,0.0018,0.0023,0.014,0.0139,0.0013,-0.0032,0,0,0,-0.0517,-0.0509,-0.0501,-0.0469,-0.0411,-0.0246,-0.0222,-0.0129,-0.0099,0.0014,0.0024,0.014,0.0139,0.0017,-0.0024,0.0006,0,0,0,-0.0548,-0.0591,-0.0503,-0.0529,-0.0413,-0.0356,-0.0223,-0.015,-0.0069,0.0019,0.014,0.0139,0.0019,-0.002,0.0009,0.0119,0.0113,0,0,-0.0631,-0.0601,-0.0616,-0.0534,-0.0526,-0.0374,-0.0335,-0.017,-0.0065,0.0081,0.0085,0.0011,-0.0024,0.0007,0.0042,0.0039,0,0,0,-0.066,-0.0675,-0.0657,-0.0621,-0.0538,-0.0445,-0.0288,-0.0209,-0.0083,-0.0027,0.0021,0.0004,0.0027,0.01,0.0097,0.0384,0.0132,0.0133,0.0133,-0.0815,-0.0759,-0.0775,-0.0697,-0.0642,-0.0483,-0.04,-0.0259,-0.0154,-0.0131,-0.0097,-0.0155,-0.0083,-0.0082,0.021,-0.0095,-0.0095,-0.0095,-0.0096,-0.0932,-0.0933,-0.0848,-0.0849,-0.0727,-0.0665,-0.0475,-0.039,-0.0256,-0.0195,-0.0165,-0.0035,-0.0093,0.0221,-0.0104,-0.0103,-0.0101,-0.0101,-0.01,-0.1024,-0.1016,-0.1003,-0.0968,-0.0905,-0.0761,-0.0678,-0.0534,-0.0369,-0.0347,-0.0177,-0.0172,0.0107,-0.0312,-0.0312,-0.0312,-0.0312,-0.0312,-0.0312,-0.1112,-0.1097,-0.1125,-0.1081,-0.1056,-0.098,-0.0788,-0.067,-0.0432,-0.0289,-0.0286,0.0131,-0.0218,-0.0206,-0.0314,-0.0314,-0.0313,-0.0313,-0.0313,-0.1204,-0.1206,-0.1245,-0.1247,-0.1188,-0.1124,-0.0954,-0.0638,-0.0484,-0.0332,0.0176,-0.0218,-0.0141,-0.0136,-0.0119,-0.0198,-0.0198,-0.0198,-0.0198,-0.127,-0.1272,-0.1321,-0.133,-0.1314,-0.1182,-0.096,-0.0597,-0.0019,0.0304,0.0383,0.0473,0.0456,0.0573,0.0563,0.0597,0.0701,0.0703,0.0704,-0.1314,-0.1321,-0.1361,-0.1365,-0.1354,-0.1222,-0.0958,-0.0469,0.0378,0.0767,0.076,0.0722,0.0878,0.0828,0.103,0.0992,0.1054,0,0]}],[{"header":{"parameterUnit":"m.s-1","parameterCategory":2,"la1":30.2992,"la2":30.254,"lo1":-89.0895,"lo2":-89.0443,"dy":0.0025,"dx":0.0025,"nx":19,"ny":19,"refTime":"2026-04-22T09:00:00:Z","depth":"2","parameterNumber":2,"parameterNumberName":"U-component_of_CURRENTS"},"data":[0,0,0,-0.3014,-0.3018,-0.3186,-0.3186,-0.3234,-0.3234,0,0,0,0,0,0,0,0,0,0,0,-0.2924,-0.2925,-0.3013,-0.3018,-0.3186,-0.3186,-0.3234,-0.3234,0,0,0,0,0,0,0,0,0,0,0,-0.2924,-0.2925,-0.2926,-0.3019,-0.3186,-0.3186,-0.3234,-0.3142,0,0,0,0,0,0,0,0,0,0,-0.2997,-0.2928,-0.2925,-0.2926,-0.302,-0.3186,-0.3186,-0.3139,-0.3148,-0.3119,0,-0.3149,0,-0.3216,-0.3236,-0.3236,0,0,0,-0.2991,-0.2921,-0.2998,-0.2927,-0.3022,-0.3186,-0.3103,-0.3145,-0.3154,-0.3129,-0.3151,-0.3155,-0.3217,-0.3236,-0.3236,-0.3213,-0.3213,0,0,-0.2982,-0.2921,-0.2992,-0.3004,-0.3069,-0.3097,-0.3108,-0.3152,-0.314,-0.3151,-0.3158,-0.3218,-0.3237,-0.3237,-0.3214,-0.3213,0,0,0,-0.2974,-0.2914,-0.2992,-0.2999,-0.3057,-0.3103,-0.3115,-0.3137,-0.3173,-0.3159,-0.3218,-0.3237,-0.3237,-0.3214,-0.3213,-0.32,0,0,0,-0.2967,-0.2913,-0.2987,-0.2948,-0.3058,-0.312,-0.3098,-0.3169,-0.3178,-0.3218,-0.3237,-0.3237,-0.3215,-0.3214,-0.3201,-0.3187,0,0,0,-0.2916,-0.2907,-0.2935,-0.2946,-0.3039,-0.3122,-0.3158,-0.3173,-0.3215,-0.3236,-0.3237,-0.3215,-0.3214,-0.3203,-0.3189,-0.3186,0,0,0,-0.2836,-0.289,-0.2933,-0.2995,-0.3038,-0.3151,-0.3159,-0.3235,-0.3259,-0.3237,-0.3215,-0.3213,-0.3203,-0.3191,-0.3187,-0.2992,-0.2971,0,0,-0.2871,-0.2892,-0.2932,-0.2977,-0.3083,-0.3126,-0.3168,-0.3211,-0.3219,-0.3185,-0.3186,-0.3201,-0.3189,-0.3186,-0.2928,-0.2908,0,0,0,-0.2922,-0.2939,-0.2979,-0.3044,-0.3136,-0.3155,-0.3214,-0.3209,-0.3198,-0.3236,-0.3182,-0.3174,-0.3173,-0.3057,-0.3042,-0.3208,-0.3208,-0.3208,-0.3209,-0.2854,-0.2927,-0.297,-0.3049,-0.3103,-0.3176,-0.3178,-0.3165,-0.3187,-0.3168,-0.315,-0.3117,-0.299,-0.2977,-0.3138,-0.3138,-0.3138,-0.3138,-0.3138,-0.2844,-0.2839,-0.2919,-0.2985,-0.3033,-0.3058,-0.3097,-0.3114,-0.3096,-0.3105,-0.3106,-0.303,-0.2959,-0.3136,-0.3137,-0.3137,-0.3137,-0.3137,-0.3137,-0.274,-0.2742,-0.2801,-0.2858,-0.2897,-0.2966,-0.2971,-0.3035,-0.3063,-0.3071,-0.2957,-0.2955,-0.3122,-0.3081,-0.3081,-0.3081,-0.3081,-0.3081,-0.3081,-0.2574,-0.2641,-0.2632,-0.2719,-0.2734,-0.2791,-0.2901,-0.2917,-0.2918,-0.2911,-0.291,-0.3098,-0.31,-0.3117,-0.308,-0.308,-0.308,-0.308,-0.308,-0.2397,-0.2441,-0.2421,-0.2437,-0.2501,-0.2475,-0.2653,-0.2657,-0.2717,-0.2665,-0.2816,-0.2823,-0.281,-0.282,-0.2829,-0.272,-0.272,-0.272,-0.272,-0.2237,-0.2272,-0.22,-0.2189,-0.2215,-0.2309,-0.2193,-0.2224,-0.2363,-0.2379,-0.2394,-0.2347,-0.2368,-0.233,-0.2351,-0.2352,-0.2118,-0.2118,-0.2117,-0.2082,-0.2101,-0.1985,-0.2029,-0.2062,-0.2085,-0.1888,-0.1755,-0.1856,-0.2097,-0.2333,-0.2671,-0.2642,-0.266,-0.2637,-0.2657,-0.2673,0,0]},{"header":{"parameterUnit":"m.s-1","parameterCategory":2,"la1":30.2992,"la2":30.254,"lo1":-89.0895,"lo2":-89.0443,"dy":0.0025,"dx":0.0025,"nx":19,"ny":19,"refTime":"2026-04-22T09:00:00:Z","depth":"2","parameterNumber":3,"parameterNumberName":"V-component_of_CURRENTS"},"data":[0,0,0,-0.0449,-0.0448,-0.0316,-0.0315,-0.0068,-0.0066,0,0,0,0,0,0,0,0,0,0,0,-0.0495,-0.0495,-0.045,-0.0447,-0.0316,-0.0315,-0.0069,-0.0066,0,0,0,0,0,0,0,0,0,0,0,-0.0495,-0.0495,-0.0495,-0.0447,-0.0316,-0.0315,-0.0069,-0.0181,0,0,0,0,0,0,0,0,0,0,-0.0315,-0.0378,-0.0495,-0.0495,-0.0447,-0.0317,-0.0315,-0.0187,-0.0174,-0.0114,0,-0.0115,0,-0.0095,-0.005,-0.005,0,0,0,-0.0418,-0.0389,-0.036,-0.0495,-0.0446,-0.0317,-0.0367,-0.018,-0.0165,-0.0097,-0.0111,-0.0102,-0.0091,-0.0049,-0.0048,0.0101,0.0101,0,0,-0.0425,-0.0454,-0.0371,-0.0352,-0.0436,-0.0372,-0.0364,-0.0172,-0.0161,-0.011,-0.0097,-0.0087,-0.0047,-0.0046,0.0101,0.0101,0,0,0,-0.0466,-0.046,-0.0436,-0.0362,-0.035,-0.0369,-0.0359,-0.0169,-0.0164,-0.0094,-0.0084,-0.0046,-0.0043,0.0101,0.0101,-0.0014,0,0,0,-0.0469,-0.0485,-0.044,-0.0453,-0.0355,-0.0269,-0.0361,-0.0177,-0.0155,-0.0085,-0.0046,-0.0041,0.0102,0.0101,-0.001,-0.0057,0,0,0,-0.0497,-0.0487,-0.0482,-0.0455,-0.0413,-0.0272,-0.0254,-0.0172,-0.0149,-0.0049,-0.004,0.0102,0.0101,-0.0007,-0.0051,-0.003,0,0,0,-0.0515,-0.0553,-0.0483,-0.0506,-0.0414,-0.0363,-0.0255,-0.0192,-0.012,-0.0045,0.0102,0.0101,-0.0006,-0.0048,-0.0028,0.0053,0.0048,0,0,-0.0584,-0.0562,-0.0575,-0.051,-0.0504,-0.0378,-0.0332,-0.0193,-0.0097,0.005,0.0054,-0.0011,-0.0051,-0.003,0.0036,0.0032,0,0,0,-0.061,-0.0623,-0.0607,-0.0578,-0.0508,-0.0423,-0.0287,-0.0212,-0.0089,-0.006,0.0015,-0.0005,0.0012,0.0066,0.0063,0.01,0.01,0.01,0.01,-0.074,-0.0693,-0.0707,-0.0638,-0.0586,-0.0442,-0.0363,-0.0227,-0.0135,-0.0104,-0.008,-0.0117,-0.0062,-0.0063,-0.0058,-0.0058,-0.0059,-0.0059,-0.0059,-0.0846,-0.0853,-0.077,-0.0772,-0.066,-0.0596,-0.0407,-0.0331,-0.0199,-0.0144,-0.0121,-0.0035,-0.0073,-0.0068,-0.0066,-0.0065,-0.0064,-0.0063,-0.0063,-0.0938,-0.0934,-0.0921,-0.0889,-0.0826,-0.0686,-0.0602,-0.046,-0.0305,-0.0283,-0.0151,-0.0148,-0.0173,-0.0258,-0.0258,-0.0258,-0.0258,-0.0259,-0.0259,-0.1036,-0.1018,-0.1046,-0.1001,-0.0977,-0.0902,-0.0712,-0.0601,-0.0384,-0.0253,-0.0251,-0.0182,-0.0176,-0.0181,-0.0261,-0.026,-0.026,-0.026,-0.026,-0.1135,-0.1136,-0.1174,-0.1175,-0.1113,-0.1052,-0.0885,-0.0598,-0.0454,-0.0322,-0.0199,-0.02,-0.0138,-0.0133,-0.0134,-0.0197,-0.0197,-0.0197,-0.0197,-0.1209,-0.1209,-0.1256,-0.1261,-0.124,-0.1111,-0.092,-0.0599,-0.0299,-0.0148,-0.0151,-0.0113,-0.0115,-0.0049,-0.0046,-0.0044,-0.0084,-0.0084,-0.0084,-0.126,-0.1266,-0.1305,-0.1301,-0.1281,-0.1158,-0.0934,-0.0527,-0.0129,-0.0084,-0.0177,-0.0181,-0.0128,-0.0132,-0.0028,-0.0024,-0.0019,0,0]}],[{"header":{"parameterUnit":"m.s-1","parameterCategory":2,"la1":30.2992,"la2":30.254,"lo1":-89.0895,"lo2":-89.0443,"dy":0.0025,"dx":0.0025,"nx":19,"ny":19,"refTime":"2026-04-22T09:00:00:Z","depth":"4","parameterNumber":2,"parameterNumberName":"U-component_of_CURRENTS"},"data":[0,0,0,-0.1844,-0.1847,-0.2026,-0.2027,-0.2167,-0.2168,0,0,0,0,0,0,0,0,0,0,0,-0.1781,-0.1782,-0.1844,-0.1848,-0.2026,-0.2027,-0.2167,-0.2168,0,0,0,0,0,0,0,0,0,0,0,-0.178,-0.1781,-0.1783,-0.1848,-0.2026,-0.2027,-0.2167,-0.2057,0,0,0,0,0,0,0,0,0,0,-0.1897,-0.1871,-0.1781,-0.1783,-0.1849,-0.2025,-0.2027,-0.2053,-0.2064,-0.2057,0,-0.2081,0,-0.2121,-0.2174,-0.2175,0,0,0,-0.1861,-0.1862,-0.1883,-0.1783,-0.1851,-0.2025,-0.1949,-0.206,-0.2072,-0.2071,-0.2083,-0.209,-0.2123,-0.2175,-0.2175,-0.2343,-0.2344,0,0,-0.1851,-0.1841,-0.1874,-0.189,-0.189,-0.1943,-0.1955,-0.2069,-0.2092,-0.2084,-0.2094,-0.2126,-0.2176,-0.2176,-0.2342,-0.2343,0,0,0,-0.1814,-0.1834,-0.1855,-0.1883,-0.1919,-0.1948,-0.1961,-0.2088,-0.2087,-0.2095,-0.2127,-0.2176,-0.2177,-0.2341,-0.2343,-0.2385,0,0,0,-0.1809,-0.1811,-0.185,-0.185,-0.1917,-0.2024,-0.1978,-0.208,-0.2094,-0.2127,-0.2176,-0.2178,-0.234,-0.2342,-0.2382,-0.2376,0,0,0,-0.1774,-0.1809,-0.182,-0.1848,-0.1917,-0.2023,-0.2033,-0.2084,-0.2112,-0.2175,-0.2178,-0.2339,-0.2341,-0.2378,-0.2371,-0.2375,0,0,0,-0.1768,-0.1795,-0.1821,-0.1878,-0.1915,-0.2019,-0.2033,-0.2128,-0.2185,-0.2177,-0.234,-0.2342,-0.2377,-0.2368,-0.2373,-0.2038,0,0,0,-0.179,-0.1798,-0.1832,-0.1858,-0.1949,-0.1996,-0.2128,-0.2203,-0.2225,-0.2295,-0.23,-0.2383,-0.2371,-0.2375,-0.2203,0,0,0,0,-0.1832,-0.1849,-0.1883,-0.1952,-0.2026,-0.2135,-0.2215,-0.2254,-0.2357,-0.227,-0.2427,-0.2418,-0.2418,-0.222,-0.2356,-0.2355,-0.2355,-0.2355,-0.2355,-0.1838,-0.1885,-0.1957,-0.2032,-0.2112,-0.2243,-0.2322,-0.2398,-0.2408,-0.2472,-0.2486,-0.2563,-0.2361,-0.2538,-0.2538,-0.2538,-0.2539,-0.2539,-0.2539,-0.1869,-0.19,-0.2008,-0.2094,-0.2213,-0.2328,-0.2453,-0.2488,-0.257,-0.2572,-0.2571,-0.2322,-0.2544,-0.2543,-0.2542,-0.2542,-0.2541,-0.2541,-0.2541,-0.1856,-0.187,-0.1963,-0.2095,-0.224,-0.2375,-0.2442,-0.2547,-0.2601,-0.2624,-0.2396,-0.2584,-0.2538,-0.2628,-0.2628,-0.2628,-0.2628,-0.2628,-0.2628,-0.1778,-0.1864,-0.192,-0.2077,-0.2152,-0.2273,-0.2433,-0.2449,-0.254,-0.2399,-0.2632,-0.2592,-0.2589,-0.2545,-0.2629,-0.2629,-0.2628,-0.2628,-0.2628,-0.1675,-0.1733,-0.1789,-0.1861,-0.2007,-0.2067,-0.2269,-0.224,-0.2234,-0.2158,-0.2268,-0.2285,-0.2225,-0.2231,-0.2171,-0.2147,-0.2143,-0.2139,0,-0.157,-0.1615,-0.1637,-0.1686,-0.1735,-0.1917,-0.1831,-0.1899,-0.1974,-0.1915,-0.2235,-0.2361,-0.2371,-0.2307,-0.2305,-0.2236,0,0,0,-0.1466,-0.1501,-0.1461,-0.1553,-0.1588,-0.1644,-0.1793,-0.1726,-0.199,-0.1866,-0.2037,-0.2064,-0.2392,-0.2631,-0.258,-0.2576,-0.2501,0,0]},{"header":{"parameterUnit":"m.s-1","parameterCategory":2,"la1":30.2992,"la2":30.254,"lo1":-89.0895,"lo2":-89.0443,"dy":0.0025,"dx":0.0025,"nx":19,"ny":19,"refTime":"2026-04-22T09:00:00:Z","depth":"4","parameterNumber":3,"parameterNumberName":"V-component_of_CURRENTS"},"data":[0,0,0,-0.0321,-0.0321,-0.0272,-0.0272,-0.0116,-0.0115,0,0,0,0,0,0,0,0,0,0,0,-0.0335,-0.0335,-0.0321,-0.0321,-0.0273,-0.0272,-0.0116,-0.0115,0,0,0,0,0,0,0,0,0,0,0,-0.0335,-0.0335,-0.0335,-0.0321,-0.0273,-0.0272,-0.0117,-0.0172,0,0,0,0,0,0,0,0,0,0,-0.0229,-0.0268,-0.0335,-0.0335,-0.0321,-0.0273,-0.0272,-0.0175,-0.0168,-0.0117,0,-0.0123,0,-0.0123,-0.0104,-0.0103,0,0,0,-0.0301,-0.0274,-0.0259,-0.0335,-0.0321,-0.0273,-0.0289,-0.0172,-0.0164,-0.0108,-0.0121,-0.0116,-0.012,-0.0103,-0.0102,0.0055,0.0056,0,0,-0.0304,-0.0321,-0.0265,-0.0255,-0.0323,-0.029,-0.0288,-0.0168,-0.0165,-0.0121,-0.0113,-0.0118,-0.0102,-0.0101,0.0055,0.0055,0,0,0,-0.0325,-0.0323,-0.0312,-0.026,-0.0263,-0.029,-0.0286,-0.017,-0.0167,-0.0112,-0.0116,-0.0101,-0.0099,0.0054,0.0055,-0.0034,0,0,0,-0.0325,-0.0336,-0.0313,-0.0322,-0.0267,-0.0231,-0.0291,-0.0175,-0.0162,-0.0117,-0.0101,-0.0097,0.0054,0.0055,-0.0033,-0.0076,0,0,0,-0.0335,-0.0337,-0.0336,-0.0323,-0.0312,-0.0234,-0.0223,-0.0172,-0.0165,-0.0103,-0.0097,0.0053,0.0054,-0.0032,-0.0073,-0.0057,0,0,0,-0.0345,-0.0373,-0.0337,-0.0361,-0.0312,-0.0284,-0.0224,-0.0193,-0.0149,-0.01,0.0054,0.0055,-0.0032,-0.0072,-0.0056,-0.0092,0,0,0,-0.0391,-0.0379,-0.0392,-0.0359,-0.0361,-0.0288,-0.0253,-0.0175,-0.0103,0.0023,0.0027,-0.0034,-0.0073,-0.0057,-0.0017,0,0,0,0,-0.0413,-0.0424,-0.0417,-0.0407,-0.0366,-0.0312,-0.0229,-0.0168,-0.0068,-0.0074,0.0017,-0.0004,0.0009,-0.0006,0.0061,0.0061,0.0061,0.0061,0.006,-0.0501,-0.0472,-0.0488,-0.0445,-0.0411,-0.0314,-0.0256,-0.0144,-0.0081,-0.0041,-0.004,-0.0038,-0.0054,0.0008,0.0007,0.0007,0.0007,0.0006,0.0006,-0.0576,-0.0587,-0.0534,-0.0547,-0.0468,-0.0422,-0.0265,-0.0208,-0.0091,-0.0049,-0.0033,-0.0054,-0.0001,0.0,0.0001,0.0002,0.0003,0.0003,0.0004,-0.0646,-0.0644,-0.0651,-0.0644,-0.0603,-0.0499,-0.0427,-0.0307,-0.0176,-0.0157,-0.0125,-0.0073,-0.0106,-0.0141,-0.0141,-0.0141,-0.0141,-0.0141,-0.0141,-0.0717,-0.0713,-0.0755,-0.0738,-0.0734,-0.0681,-0.0525,-0.0435,-0.0291,-0.0213,-0.0175,-0.0086,-0.0081,-0.0111,-0.0143,-0.0143,-0.0142,-0.0142,-0.0142,-0.0785,-0.0803,-0.0853,-0.0873,-0.0845,-0.0794,-0.0672,-0.0475,-0.0383,-0.0284,-0.0215,-0.0211,-0.0173,-0.0166,-0.0197,-0.0256,-0.0257,-0.0258,0,-0.084,-0.0848,-0.0915,-0.0936,-0.0921,-0.0836,-0.0714,-0.0582,-0.04,-0.0406,-0.0382,-0.0314,-0.0307,-0.0274,-0.0267,-0.031,0,0,0,-0.0876,-0.0891,-0.0938,-0.0958,-0.0937,-0.077,-0.0671,-0.0605,-0.044,-0.0338,-0.0273,-0.0269,-0.0235,-0.0148,-0.0079,-0.0073,-0.0116,0,0]}]]